Location: ?p Thanh B�nh
(16.5833°N, 107.5333°E)
Time: 05:57:58
(UTC+00:00)

SJ-12 - Pass Details

Date: 29 October 2020
Orbit: 568 x 585 km, 97.7° (Epoch: 27 November)

Event Time Altitude Azimuth Distance (km) Brightness Sun altitude
Rises 21:37:28 0° 12° (NNE) 2,778 7.4 -17.1°
Reaches altitude 10° 21:39:37 10° 12° (NNE) 1,876 6.6 -16.6°
Maximum altitude 21:43:41 87° 101° (E) 576 3.9 -15.6°
Drops below altitude 10° 21:47:44 10° 191° (S) 1,864 6.5 -14.7°
Sets 21:49:51 0° 191° (S) 2,757 7.4 -14.2°
